Location: El Manguito
(10.2358°N, 67.3634°W)
Time: 16:31:15
(UTC+00:00)

Cosmos 1743 - Pass Details

Date: 10 September 2024
Orbit: 464 x 474 km, 82.5° (Epoch: 15 October)

Event Time Altitude Azimuth Distance (km) Brightness Sun altitude
Rises 23:41:43 0° 202° (SSW) 2,525 6.4 -17.7°
Reaches altitude 10° 23:44:00 10° 214° (SW) 1,643 5.6 -18.3°
Maximum altitude 23:47:08 28° 275° (W) 909 4.7 -19.0°
Drops below altitude 10° 23:50:16 10° 336° (NNW) 1,633 5.6 -19.8°
Sets 23:52:32 0° 348° (NNW) 2,505 6.5 -20.3°
